Home   Weather   Launceston   Past weeks

Flag for Australia Past Weather in Launceston, Tasmania, Australia — Yesterday and Last 2 Weeks

Now
36 °F

Clear.


Feels Like: 36 °F
Forecast: 33 / 51 °F
Wind: No wind

Location: Launceston Airport

Current Time: Jul 24, 2017 at 12:56:55 am

Latest Report: Jul 24, 2017 at 12:00 am


Visibility: N/A

Pressure: 29.83 "Hg

Humidity: 81%

Dew Point: 30 °F

Location of LauncestonLocation

Past Weather in Launceston — Graph

°F

Launceston Temperature Yesterday

Maximum temperature yesterday: 54 °F (at 1:30 pm)
Minimum temperature yesterday: 34 °F (at 11:30 pm)
Average temperature yesterday: 48 °F

High & Low Weather Summary for the Past Weeks

 TemperatureHumidityPressure
High55 °F (Jul 10, 2:00 pm)100% (Jul 8, 11:30 pm)30.57 "Hg (Jul 8, 11:30 pm)
Low27 °F (Jul 12, 5:30 am)44% (Jul 10, 12:30 pm)29.56 "Hg (Jul 18, 1:30 pm)
Average43 °F84%29.95 "Hg
* Reported Jul 8 11:00 pm — Jul 23 11:30 pm, Launceston. Weather by CustomWeather, © 2017

Note: Actual official high and low records may vary slightly from our data, if they occured in-between our weather recording intervals... More about our weather records

Advertising

Launceston Weather History for the Previous 24 Hours

Scroll right to see more
 ConditionsComfort  
Time TempWeatherWind HumidityBarometerVisibility
11:30 pm
Sun, Jul 23
34 °FClear.2 mph81%29.83 "HgN/A
11:00 pm36 °FClear.5 mph81%29.80 "HgN/A
10:30 pm37 °FClear.No wind81%29.80 "HgN/A
9:30 pm41 °FClear.9 mph76%29.77 "HgN/A
9:00 pm43 °FClear.10 mph71%29.77 "HgN/A
8:30 pm39 °FClear.5 mph75%29.74 "HgN/A
8:00 pm45 °FClear.9 mph66%29.71 "HgN/A
7:30 pm46 °FClear.9 mph71%29.71 "HgN/A
7:00 pm45 °FClear.8 mph76%29.68 "HgN/A
6:30 pm46 °FClear.6 mph71%29.68 "HgN/A
6:00 pm50 °FPassing clouds.10 mph62%29.65 "HgN/A
5:30 pm50 °FPassing clouds.9 mph71%29.62 "HgN/A
5:00 pm50 °FSunny.8 mph71%29.59 "HgN/A
4:30 pm50 °FScattered clouds.8 mph76%29.59 "HgN/A
3:30 pm54 °FPartly sunny.13 mph67%29.56 "HgN/A
3:00 pm52 °FBroken clouds.13 mph72%29.56 "HgN/A
2:30 pm52 °FCloudy.13 mph72%29.56 "HgN/A
2:00 pm54 °FCloudy.13 mph67%29.56 "HgN/A
1:30 pm54 °FMostly cloudy.13 mph67%29.56 "HgN/A
12:30 pm52 °FSprinkles. Broken clouds.12 mph77%29.56 "HgN/A
11:30 am52 °FMostly cloudy.16 mph72%29.59 "HgN/A
11:00 am52 °FBroken clouds.20 mph72%29.59 "HgN/A
10:30 am52 °FBroken clouds.16 mph72%29.59 "HgN/A
10:00 am50 °FScattered clouds.15 mph82%29.59 "HgN/A
9:30 am50 °FScattered clouds.14 mph82%29.59 "HgN/A
9:00 am48 °FSunny.17 mph87%29.59 "HgN/A
8:30 am46 °FSunny.14 mph87%29.56 "HgN/A
8:00 am46 °FSunny.17 mph87%29.56 "HgN/A
7:30 am45 °FSunny.16 mph93%29.56 "HgN/A
7:00 am45 °FPartly cloudy.15 mph93%29.56 "HgN/A
6:30 am45 °FMostly cloudy.18 mph93%29.56 "HgN/A
6:00 am48 °FRain. Overcast.17 mph87%29.56 "Hg5 mi
5:30 am48 °FSprinkles. Partly cloudy.13 mph94%29.56 "Hg6 mi
5:00 am50 °FMostly cloudy.18 mph82%29.56 "HgN/A
4:30 am50 °FSprinkles. Partly cloudy.20 mph88%29.56 "HgN/A
4:00 am50 °FSprinkles. Overcast.22 mph88%29.56 "Hg4 mi
3:30 am48 °FLight rain. Mostly cloudy.21 mph94%29.59 "Hg4 mi
3:00 am48 °FPassing clouds.22 mph94%29.59 "Hg4 mi
2:30 am48 °FRain. Mostly cloudy.20 mph94%29.62 "Hg4 mi
2:00 am48 °FLight rain. Mostly cloudy.22 mph87%29.62 "Hg4 mi
1:30 am52 °FOvercast.26 mph72%29.62 "HgN/A
1:00 am52 °FOvercast.31 mph77%29.62 "HgN/A
12:30 am52 °FOvercast.30 mph77%29.62 "HgN/A
12:00 am52 °FOvercast.26 mph77%29.65 "HgN/A
Weather by CustomWeather, © 2017

See weather overviewHow to use our weather pages